Terug naar catalogus

FENGYUN 1C DEB

ActiefSSO
NORAD 31512·DEBRIS·🇨🇳 China

Gelanceerd May 10, 1999 vanaf Taiyuan Satellite Launch Center

Loading…

Volgende Passages (komende 24 uur)

TLE

VerouderendSource: Space-Track

Epoch: Sep 10, 2026, 00:22 UTC

1 31512U 99025BXB 26253.01529442  .00001243  00000-0  32892-3 0  9999
2 31512  98.7833 162.7425 0143236  56.1138 317.1072 14.44774803694183

Volg FENGYUN 1C DEB in realtime met AllMySat

Download on the App Store